TimeCST,TemperatureF,Dew PointF,Humidity,Sea Level PressureIn,VisibilityMPH,Wind Direction,Wind SpeedMPH,Gust SpeedMPH,PrecipitationIn,Events,Conditions,WindDirDegrees,DateUTC
12:53 AM,-2.0,-11.0,66,30.44,10.0,NNW,18.4,-,N/A,,Clear,340,2014-01-21 06:53:00
1:53 AM,-4.0,-11.9,69,30.46,10.0,North,18.4,-,N/A,,Clear,350,2014-01-21 07:53:00
2:53 AM,-5.1,-13.0,69,30.49,10.0,NNW,15.0,-,N/A,,Clear,330,2014-01-21 08:53:00
3:53 AM,-6.0,-15.0,65,30.50,10.0,NNW,17.3,-,N/A,,Unknown,330,2014-01-21 09:53:00
4:53 AM,-8.0,-15.0,71,30.51,10.0,NNW,15.0,-,N/A,,Clear,330,2014-01-21 10:53:00
5:53 AM,-9.0,-16.1,71,30.49,10.0,NNW,13.8,-,N/A,,Clear,330,2014-01-21 11:53:00
6:53 AM,-11.0,-16.1,78,30.48,10.0,NW,8.1,-,N/A,,Clear,320,2014-01-21 12:53:00
7:53 AM,-13.0,-18.0,78,30.48,10.0,Calm,Calm,-,N/A,,Clear,0,2014-01-21 13:53:00
8:53 AM,-9.9,-16.1,74,30.49,10.0,WNW,10.4,-,N/A,,Clear,290,2014-01-21 14:53:00
9:53 AM,-7.1,-14.1,72,30.49,10.0,WNW,9.2,-,N/A,,Clear,290,2014-01-21 15:53:00
10:53 AM,-6.0,-11.9,75,30.48,10.0,West,6.9,-,N/A,,Clear,260,2014-01-21 16:53:00
11:53 AM,-4.0,-9.9,76,30.43,10.0,West,4.6,-,N/A,,Clear,270,2014-01-21 17:53:00
12:53 PM,-2.0,-8.0,76,30.37,10.0,SSW,6.9,-,N/A,,Scattered Clouds,210,2014-01-21 18:53:00
1:53 PM,-0.0,-5.1,79,30.32,10.0,South,6.9,-,N/A,,Overcast,180,2014-01-21 19:53:00
2:53 PM,1.9,-5.1,72,30.28,10.0,South,9.2,-,N/A,,Overcast,180,2014-01-21 20:53:00
3:53 PM,3.0,-4.0,73,30.27,10.0,South,12.7,-,N/A,,Overcast,170,2014-01-21 21:53:00
4:53 PM,3.9,-2.0,76,30.24,5.0,South,10.4,-,0.00,,Haze,170,2014-01-21 22:53:00
5:19 PM,3.9,-0.9,80,30.13,2.5,South,12.7,-,0.00,Snow,Light Snow,170,2014-01-21 23:19:00
5:36 PM,3.9,-0.9,80,30.11,3.0,SSE,12.7,-,0.00,Snow,Light Snow,160,2014-01-21 23:36:00
5:53 PM,3.9,-0.9,80,30.21,3.0,South,15.0,-,0.00,Snow,Light Snow,170,2014-01-21 23:53:00
6:53 PM,5.0,1.0,84,30.23,4.0,South,9.2,-,0.00,Snow,Light Snow,190,2014-01-22 00:53:00
7:53 PM,6.1,1.9,83,30.20,10.0,South,10.4,-,0.00,,Overcast,170,2014-01-22 01:53:00
8:53 PM,6.1,1.0,80,30.18,10.0,South,12.7,-,N/A,,Overcast,180,2014-01-22 02:53:00
9:53 PM,7.0,1.0,77,30.14,10.0,South,10.4,-,N/A,,Overcast,180,2014-01-22 03:53:00
10:53 PM,7.0,1.9,80,30.12,10.0,South,11.5,-,N/A,,Overcast,190,2014-01-22 04:53:00
11:53 PM,8.1,3.0,80,30.08,10.0,South,12.7,-,N/A,,Overcast,190,2014-01-22 05:53:00